sat.trackr.live / text

‹ back to catalog

STARLINK-32699

NORAD 62482 · 2024-254W

PAYLOAD ACTIVE UNKNOWN

§ Identity

Operator
Country
US
Launch date
2024-12-31
Launch site
AFETR
Launch vehicle
Mass (kg)
RCS (m²)

Purposes: comms

External: N2YO · Heavens-Above · Gunter

§ Orbital elements

Epoch: 2026-09-21T07:28:13.081728Z

Period
94.27 min
Inclination
42.9992°
Eccentricity
0.0001144
Mean motion
15.27592292 rev/d
Perigee alt
482.2 km
Apogee alt
483.8 km
Semi-major
6,861.1 km
B*
5.4493e-4
RAAN
354.8116°
Arg perigee
228.3469°
Mean anomaly
131.7285°
Rev number
9,738

§ Raw data

STARLINK-326991 62482U 24254W   26264.31126252  .00014769  00000+0  54493-3 0  99952 62482  42.9992 354.8116 0001144 228.3469 131.7285 15.27592292 97389

JSON: /api/v1/satellites/62482 · /tle

For live sub-satellite position, see the globe view (requires WebGL).

§ Visibility from observer

Set your observer location to see the next 7 days of passes ≥ 10°. The values pass through the URL so the page stays shareable.

No JS? Fill the form by hand. The geolocation button needs JavaScript.